Current Version              Previous Version:    01  02  03  04  05  06  07  08  09  10  11  12  13  14  15  16  17  18  19  20  21  22  23  24  25  26  27  28  29  30  
   31  32  33  34  35  36  37  38  39  40  41  42  43  44  45  46  47  48  49  50  51  52  53  54  55  56  57  58  59  60  

[Printable]
603
ASUS44 KFWD 190510
RWRTX
NORTH TEXAS HOURLY WEATHER ROUNDUP
NATIONAL WEATHER SERVICE FORT WORTH TX
1100 PM CST THU DEC 18 2014

NOTE: "FAIR" INDICATES FEW OR NO CLOUDS BELOW 12,000 FEET WITH NO
SIGNIFICANT WEATHER AND/OR OBSTRUCTIONS TO VISIBILITY.

TXZ118-119-190600-
DALLAS/FORT WORTH METROPLEX

CITY           SKY/WX    TMP DP  RH WIND       PRES   REMARKS
DFW AIRPORT    CLOUDY    47  43  86 NE10      30.17F
DALLAS LOVE    CLOUDY    47  43  86 NE3       30.19R
FTW MEACHAM    CLOUDY    47  43  86 N6        30.17S FOG
DAL-EXECUTIVE  CLOUDY    48  44  86 NE6       30.17R
FTW-ALLIANCE   CLOUDY    45  43  93 N9        30.17F
FTW-SPINKS     CLOUDY    47  44  90 NE3       30.18F FOG
ARLINGTON      CLOUDY    49  42  77 NE7       30.17F
GRAND PRAIRIE  CLOUDY    47  45  90 NE5       30.19R
ADDISON        CLOUDY    47  47 100 NE6       30.19F
MESQUITE       CLOUDY    46  44  93 N7        30.18R
LANCASTER      CLOUDY    46  43  87 N5        30.20R
$$

TXZ091>094-102>105-117-120-121-131>134-190600-
NORTH CENTRAL TEXAS

CITY           SKY/WX    TMP DP  RH WIND       PRES   REMARKS
SHRMAN/DENISON CLOUDY    44  44 100 NE3       30.21R FOG
GAINESVILLE    CLOUDY    43  41  95 NE5       30.23R
BOWIE          CLOUDY    44  43  98 NE3       30.19S FOG
BRIDGEPORT     CLOUDY    46  46 100 E6        30.21R
DECATUR        CLOUDY    44  44  99 E8        30.18S FOG     WCI  39
DENTON         CLOUDY    45  43  93 NE7       30.19R
MCKINNEY       CLOUDY    45  43  93 N7        30.19S
GREENVILLE     CLOUDY    45  43  93 NE7       30.17F FOG
ROCKWALL       CLOUDY    46  45  97 N6        30.18R FOG
TERRELL        CLOUDY    48  44  86 N9        30.17R
WAXAHACHIE     CLOUDY    46  46 100 N9        30.18R FOG
CLEBURNE       CLOUDY    46  46 100 NE7       30.17R
GRANBURY       CLOUDY    49  44  84 CALM      30.18S
$$

TXZ083>090-098>101-113>116-127>130-139>142-154-155-190600-
WESTERN NORTH TEXAS

CITY           SKY/WX    TMP DP  RH WIND       PRES   REMARKS
WICHITA FALLS  CLOUDY    43  41  93 E5        30.20R
WF-KICKAPOO    CLOUDY    44  44 100 NE5       30.22R
VERNON         CLOUDY    44  38  78 E6        30.22R
ABILENE        CLOUDY    44  39  82 NE7       30.15F
ABILENE-DYESS  CLOUDY    44  38  78 NE8       30.14F WCI  39
BRECKENRIDGE   CLOUDY    47  44  88 NE7       30.16S FOG
GRAHAM         CLOUDY    45  44  97 N3        30.16S
MINERAL WELLS  CLOUDY    48  44  86 E5        30.16S
STEPHENVILLE   CLOUDY    47  43  87 E3        30.18R
COMANCHE       CLOUDY    47  46  93 NE9       30.15S
BROWNWOOD      CLOUDY    48  45  87 NE9       30.14S
COLEMAN        CLOUDY    49  46  88 NE13      30.13F
$$

TXZ143>147-156>162-174-175-190600-
CENTRAL TEXAS

CITY           SKY/WX    TMP DP  RH WIND       PRES   REMARKS
WACO           CLOUDY    48  45  89 N10       30.15S
WACO-TSTC      CLOUDY    48  46  93 N7        30.16R
WACO-MCGREGOR  CLOUDY    48  41  76 N8        30.15F
HILLSBORO      CLOUDY    48  44  88 N8        30.16F
CORSICANA      CLOUDY    49  46  90 N7        30.17R FOG
MEXIA          CLOUDY    48  47  97 N7        30.13S FOG
HEARNE         CLOUDY    51  51  98 N7        30.11F FOG
CAMERON        CLOUDY    50  49  97 N7        30.11F FOG
TEMPLE         CLOUDY    48  43  81 N13       30.12F
KILLEEN        CLOUDY    47  46  95 NE12      30.11F
KILLEEN-SKYLRK CLOUDY    48  41  76 N10       30.09F
FORT HOOD      CLOUDY    48  46  93 NE13      30.11F
GATESVILLE     MOCLDY    48  46  93 NE7       30.16S
HAMILTON       CLOUDY    48  47  99 NE6       30.16R
$$

TXZ095>097-106>112-122>126-135>138-148>153-164>167-190600-
EAST TEXAS

CITY           SKY/WX    TMP DP  RH WIND       PRES   REMARKS
PARIS          CLOUDY    45  43  93 NE6       30.20S
SULPHUR SPRNGS CLOUDY    46  45  95 NE7       30.20S FOG
MOUNT PLEASANT CLOUDY    47  45  95 N3        30.20R
MINEOLA        CLOUDY    46  46 100 NE3       30.18S FOG
TYLER          CLOUDY    48  45  89 NE8       30.15S
LONGVIEW       CLOUDY    49  46  90 NE8       30.15F FOG
MARSHALL       CLOUDY    51  48  90 NE6       30.17F
ATHENS         CLOUDY    46  45  93 NE6       30.14S FOG
PALESTINE      CLOUDY    50  49  95 NE6       30.16R FOG
JACKSONVILLE   FOG       49  49  97 NE9       30.14S VSB 1
HENDERSON      CLOUDY    49  48  99 NE7       30.16R FOG
NACOGDOCHES    CLOUDY    52  46  82 E3        30.15R
LUFKIN         CLOUDY    56  49  77 NE5       30.13R
$$

SUPPLEMENTAL OBSERVATIONS (CENTRAL)

CITY           SKY/WX    TMP DP  RH WIND       PRES   REMARKS
CADDO GRASSLND   N/A     45  41  87 E2          N/A
PAT MAYSE LAKE   N/A     43  41  93 N1          N/A
GREENVILLE       N/A     45  41  87 NE7         N/A
CEDAR HILL       N/A     46  43  87 NE8         N/A
MCGREGOR         N/A     48  43  81 N7G15       N/A
$$

SUPPLEMENTAL OBSERVATIONS (WEST)

CITY           SKY/WX    TMP DP  RH WIND       PRES   REMARKS
MILLERS CREEK    N/A     43  39  87 NE6         N/A  WCI  39
LBJ GRASSLAND    N/A     45  39  81 N5          N/A
HAMBY            N/A     43  37  81 NE6         N/A  WCI  39
IVIE RESERVOIR   N/A     52  46  82 NE12        N/A
COLORADO BEND    N/A     46  43  87 NE7         N/A
$$

SUPPLEMENTAL OBSERVATIONS (EAST)

CITY           SKY/WX    TMP DP  RH WIND       PRES   REMARKS
CLARKSVILLE      N/A     45  43  93 NE3         N/A
TEXARKANA        N/A     45  41  87 NE3         N/A
LINDEN           N/A     46  43  87 E2          N/A
GILMER           N/A     46  43  87 NE5         N/A
HENDERSON        N/A     48  45  87 NE7G15      N/A
LUFKIN           N/A     54  50  87 MISG        N/A
N SABINE NF      N/A     52  46  82 MISG        N/A
S SABINE NF      N/A     52  48  87 N3          N/A
$$

SUPPLEMENTAL OBSERVATIONS ARE A COLLECTION OF AUTOMATED INSTRUMENTS
THAT ARE MAINTAINED BY A VARIETY OF FEDERAL AND STATE AGENCIES.
CERTAIN ELEMENTS...SUCH AS HUMIDITY VALUES AND SUSTAINED WIND
SPEEDS...MAY BE APPROXIMATED.